Weather History for Rome, NY

Change the Weather History Date:

Monday, February 18, 2013

  Actual Average Record
Temperature  
Mean Temperature 12 °F -  
Max Temperature 23 °F 34 °F 54 °F (2011)
Min Temperature 1 °F 18 °F -1 °F (1989)
Degree Days  
Heating Degree Days 53    
Moisture  
Dew Point 3 °F    
Average Humidity 63    
Maximum Humidity 83    
Minimum Humidity 52    
Precipitation  
Precipitation 0.00 in - - ()
Sea Level Pressure  
Sea Level Pressure 30.22 in    
Wind  
Wind Speed 11 mph (WNW)    
Max Wind Speed 17 mph    
Max Gust Speed -    
Visibility 10 miles    
Events      
Averages and records for this station are not official NWS values.
T = Trace of Precipitation, MM = Missing Value Source: NWS Daily Summary

Daily Weather History Graph

Daily Weather History Graph

Search for Another Location

Airport:

Trip Planner

Search our weather history database for the weather conditions in past years. The results will help you decide how hot, cold, wet, or windy it might be!

Date:

Astronomy

Feb. 18, 2013 Rise Set
Actual Time 6:54 AM EST 5:36 PM EST
Civil Twilight 6:25 AM EST 6:05 PM EST
Nautical Twilight 5:52 AM EST 6:39 PM EST
Astronomical Twilight 5:19 AM EST 7:12 PM EST
Moon 11:16 AM EST (2/18) 1:36 AM EST (2/18)
Length of Visible Light 11h 40m
Length of Day
10h 42m
First Quarter, 58% of the Moon is Illuminated
Feb 18
First Quarter
Feb 25
Full
Mar 4
Last Quarter
Mar 11
New
Mar 19
First Quarter

Hourly Weather History & Observations

Time (EST) Temp. Windchill Dew Point Humidity Pressure Visibility Wind Dir Wind Speed Gust Speed Precip Events Conditions
12:53 AM 9.0 °F -9.0 °F -0.0 °F 67% 30.12 in 10.0 mi NW 17.3 mph - N/A   Overcast
1:53 AM 7.0 °F -9.8 °F -2.0 °F 67% 30.15 in 10.0 mi NW 13.8 mph - N/A   Clear
2:53 AM 6.1 °F -8.7 °F -2.9 °F 67% 30.18 in 10.0 mi NW 10.4 mph - N/A   Clear
3:53 AM 3.9 °F -11.3 °F -2.9 °F 73% 30.21 in 10.0 mi WNW 10.4 mph - N/A   Scattered Clouds
4:03 AM 5.0 °F -9.1 °F -2.9 °F 70% 30.18 in 10.0 mi WNW 9.2 mph - N/A   Mostly Cloudy
4:53 AM 5.0 °F -9.1 °F -2.0 °F 73% 30.24 in 10.0 mi West 9.2 mph - N/A   Overcast
5:53 AM 3.9 °F -10.4 °F -2.0 °F 76% 30.27 in 10.0 mi WNW 9.2 mph - N/A   Clear
6:53 AM 1.0 °F -10.3 °F -2.9 °F 83% 30.28 in 10.0 mi WNW 5.8 mph - N/A   Partly Cloudy
7:53 AM 1.9 °F -7.6 °F -2.9 °F 80% 30.29 in 10.0 mi WNW 4.6 mph - N/A   Clear
8:53 AM 7.0 °F -3.3 °F -2.9 °F 64% 30.30 in 10.0 mi WNW 5.8 mph - N/A   Mostly Cloudy
9:53 AM 10.9 °F -1.8 °F 1.0 °F 64% 30.30 in 10.0 mi WNW 9.2 mph - 0.00 in   Mostly Cloudy
10:05 AM 12.9 °F -0.2 °F 1.9 °F 62% 30.27 in 10.0 mi West 10.4 mph - 0.00 in   Scattered Clouds
10:53 AM 15.1 °F 0.5 °F 3.9 °F 61% 30.30 in 10.0 mi WNW 13.8 mph - 0.00 in   Clear
11:53 AM 18.0 °F 4.8 °F 3.9 °F 54% 30.28 in 10.0 mi West 12.7 mph - N/A   Clear
12:53 PM 19.9 °F 7.9 °F 5.0 °F 52% 30.25 in 10.0 mi West 11.5 mph - N/A   Clear
1:53 PM 21.0 °F 9.9 °F 8.1 °F 57% 30.25 in 10.0 mi WSW 10.4 mph - N/A   Clear
2:53 PM 21.9 °F 11.0 °F 8.1 °F 55% 30.24 in 10.0 mi WSW 10.4 mph - N/A   Clear
3:53 PM 23.0 °F 13.9 °F 8.1 °F 53% 30.22 in 10.0 mi SW 8.1 mph - N/A   Clear
4:53 PM 21.9 °F 17.2 °F 7.0 °F 53% 30.21 in 10.0 mi SW 3.5 mph - N/A   Clear
5:53 PM 21.0 °F - 7.0 °F 55% 30.21 in 10.0 mi Calm Calm - N/A   Clear
6:53 PM 18.0 °F 12.7 °F 8.1 °F 65% 30.20 in 10.0 mi ENE 3.5 mph - N/A   Clear
7:53 PM 19.0 °F 9.0 °F 7.0 °F 59% 30.18 in 10.0 mi East 8.1 mph - N/A   Mostly Cloudy
8:53 PM 19.0 °F 8.2 °F 7.0 °F 59% 30.14 in 10.0 mi East 9.2 mph - N/A   Partly Cloudy
9:53 PM 19.0 °F 8.2 °F 7.0 °F 59% 30.13 in 10.0 mi ESE 9.2 mph - N/A   Clear
10:53 PM 19.9 °F 10.1 °F 7.0 °F 57% 30.10 in 10.0 mi ESE 8.1 mph - N/A   Clear
11:53 PM 19.9 °F 11.1 °F 7.0 °F 57% 30.10 in 10.0 mi ESE 6.9 mph - N/A   Clear